Home > Weather > Tarija > Past weeks

Flag for Bolivia Past Weather in Tarija, Bolivia — Yesterday and Last 2 Weeks

Now
72 °F

Clear.


Feels Like: 77 °F
Forecast: 42 / 66 °F
Wind: 9 mph from Southeast

Location: Tarija Airport

Current Time: Jul 26, 2016 at 3:53:40 PM

Latest Report: Jul 26, 2016 at 3:00 PM


Visibility: N/A

Pressure: 30.12 "Hg (24.25 "Hg at 1874m altitude)

Humidity: 44%

Dew Point: 48 °F

Location of TarijaLocation

Past Weather in Tarija — Graph

°F

Tarija Temperature Yesterday

Maximum temperature yesterday: 88 °F (at 4:00 PM)
Minimum temperature yesterday: 39 °F (at 7:00 AM)
Average temperature yesterday: 65 °F

High & Low Weather Summary for the Past Weeks

 TemperatureHumidityPressure
High88 °F (Jul 11, 2:00 PM)100% (Jul 13, 7:00 AM)30.36 "Hg (Jul 13, 7:00 AM)
Low30 °F (Jul 20, 7:00 AM)10% (Jul 14, 12:00 PM)29.83 "Hg (Jul 13, 5:00 PM)
Average58 °F56%30.08 "Hg
* Reported Jul 11 2:00 PM — Jul 26 2:00 PM, Tarija, Weather by CustomWeather, © 2016

Note: Actual official high and low records may vary slightly from our data, if they occured in-between our weather recording intervals... More about our weather records

Advertising

Tarija Weather History for the Previous 24 Hours

Scroll right to see more
 ConditionsComfort  
Time TempWeatherWind HumidityBarometerVisibility
2:00 PM
Tue, Jul 26
70 °FClear.9 mph38%30.15 "HgN/A
1:00 PM68 °FPassing clouds.7 mph46%30.18 "HgN/A
12:00 PM66 °FPassing clouds.No wind49%30.21 "HgN/A
11:00 AM63 °FScattered clouds.5 mph59%30.24 "HgN/A
10:00 AM59 °FBroken clouds.5 mph68%30.27 "HgN/A
9:00 AM55 °FPartly sunny.5 mph72%30.24 "HgN/A
8:00 AM54 °FPartly sunny.No wind82%30.21 "HgN/A
7:00 AM54 °FPartly sunny.No wind72%30.21 "HgN/A
6:00 AM54 °FMostly cloudy.No wind72%30.15 "HgN/A
11:00 PM
Mon, Jul 25
54 °FClear.No wind72%30.07 "HgN/A
10:00 PM57 °FClear.No wind72%30.04 "HgN/A
9:00 PM59 °FClear.No wind68%30.01 "HgN/A
8:00 PM64 °FClear.5 mph56%30.01 "HgN/A
6:00 PM77 °FClear.17 mph39%29.86 "HgN/A
5:00 PM84 °FClear.7 mph19%29.83 "HgN/A
4:00 PM88 °FClear.7 mph12%29.83 "HgN/A
3:00 PM86 °FClear.5 mph13%29.86 "HgN/A
Weather by CustomWeather, © 2016

See weather overviewHow to use our weather pages